Regional Weather Roundup
Issued by NWS

Home | Current Version | Previous Version | Text Only | Print | Product List | Glossary Off
Versions: 1 2 3 4 5 6 7 8 9 10 11 12 13 14 15 16 17 18 19 20 21 22 23 24 25 26 27 28 29 30 31 32 33 34 35 36 37 38 39 40 41 42 43 44 45 46 47 48 49 50

000
ASUS43 KMPX 162301
RWRMN
WEATHER ROUNDUP FOR MINNESOTA
NATIONAL WEATHER SERVICE TWIN CITIES/CHANHASSEN MN
600 PM CDT TUE SEP 16 2014


NOTE: "FAIR" INDICATES FEW OR NO CLOUDS BELOW 12,000 FEET WITH NO
SIGNIFICANT WEATHER AND/OR OBSTRUCTIONS TO VISIBILITY. N/A MEANS
CURRENT SKY AND/OR WEATHER CONDITIONS ARE NOT AVAILABLE.

MNZ060>063-068>070-170000-
   Twin Cities Metro

CITY           SKY/WX    TMP DP  RH WIND       PRES   REMARKS
TWIN CITIES    MOSUNNY   66  41  40 S10       30.04F
ST PAUL        SUNNY     65  45  48 SW5       30.04F
CRYSTAL        SUNNY     67  42  40 SW6       30.03F
BLAINE         SUNNY     68  45  42 SW7       30.04F
LAKEVILLE      SUNNY     64  43  45 SW5       30.04F
EDEN PRAIRIE   SUNNY     66  44  45 SW7       30.03F
SOUTH ST PAUL  SUNNY     66  43  42 SW6       30.04F
LAKE ELMO      FAIR      64  45  48 CALM      30.05F
$$
MNZ001>005-007-008-013>017-022>024-027-028-170000-
   Northwest Minnesota

CITY           SKY/WX    TMP DP  RH WIND       PRES   REMARKS
BEMIDJI        SUNNY     67  41  39 SW7       29.97F
HALLOCK        SUNNY     72  43  35 E6        29.91S
ROSEAU         PTSUNNY   63  52  67 MISG      29.94F
WARROAD        MOSUNNY   57  52  82 E3        29.96S
THIEF RVR FALL SUNNY     70  43  37 S8        29.94F
CROOKSTON      SUNNY     72  43  35 SW8       29.95S
FOSSTON        SUNNY     72  43  35 CALM      29.97F
DETROIT LAKES  SUNNY     66  39  37 S7        30.00S
MOORHEAD       SUNNY     72  30  21 SE3       29.96F
PARK RAPIDS    SUNNY     66  37  34 S7        29.99F
MAHNOMEN       FAIR      67  38  34 S8        29.97F
$$
MNZ006-009>011-018-025>026-170000-
   North Central Minnesota

CITY           SKY/WX    TMP DP  RH WIND       PRES   REMARKS
BAUDETTE       CLOUDY    57  50  77 CALM      29.96F
FLAG ISLAND    MOSUNNY   61  52  72 S3        29.94F
INTL FALLS     CLOUDY    58  52  80 CALM      29.97F
WASKISH        PTSUNNY   64  48  55 CALM      29.95F
BIG FORK       MOSUNNY   66  43  42 W5        29.97F
LONGVILLE      SUNNY     66  43  42 S3        29.99F
GRAND RAPIDS   SUNNY     66  41  39 W6        29.99S
CRANE LAKE     CLOUDY    57  52  82 CALM      29.98F
ORR            CLOUDY    61  46  59 CALM      29.95S
COOK           PTSUNNY   63  48  59 CALM      29.97S
WALKER         FAIR      66  39  37 SW6       29.98F
$$
MNZ012-019>021-037-170000-
   Northeast Minnesota

CITY           SKY/WX    TMP DP  RH WIND       PRES   REMARKS
DULUTH         MOSUNNY   66  41  40 W14       29.99F
ELY            CLOUDY    57  46  67 CALM      29.98S
HIBBING        MOSUNNY   66  45  46 W5        29.98S
EVELETH        MOSUNNY   63  43  48 W6        29.98F
DULUTH HARBOR  SUNNY     68  45  42 SW12      29.99S
TWO HARBORS    MOSUNNY   66  45  45 SW10G17   29.95S
SILVER BAY     SUNNY     64  50  59 CALM      29.95S
GRAND MARAIS     N/A     63  49  60 CALM      29.94F
G MARAIS ARPRT MOSUNNY   59  45  58 NW3       29.98S
$$
MNZ029>031-032-039>041-046>048-054>057-064-170000-
   West Central Minnesota

CITY           SKY/WX    TMP DP  RH WIND       PRES   REMARKS
FERGUS FALLS   PTSUNNY   68  41  37 S8        29.97F
WHEATON        PTSUNNY   64  46  52 SE10      29.98S
MORRIS         PTSUNNY   70  45  40 S9        29.97F
ALEXANDRIA     PTSUNNY   65  43  44 SE8       30.01F
ELBOW LAKE     CLOUDY    67  46  46 SE6       29.98F
GLENWOOD       PTSUNNY   64  46  52 SE7       30.01F
APPLETON       CLOUDY    68  46  45 SE5       29.97F
BENSON         CLOUDY    66  46  48 S6        29.99F
ORTONVILLE     CLOUDY    68  48  49 S8        29.97S
MADISON        PTSUNNY   72  48  43 S6        29.97F
WILLMAR        FAIR      66  45  45 CALM      30.01F
$$
MNZ033>034-036-042>043-049>051-058-059-170000-
   Central Minnesota

CITY           SKY/WX    TMP DP  RH WIND       PRES   REMARKS
ST CLOUD       SUNNY     68  44  42 S9        30.01F
SAUK CENTRE    CLOUDY    65  45  47 S5        30.01F
PAYNESVILLE    CLOUDY    62  44  51 CALM      30.02F
AITKIN         SUNNY     68  43  40 SW7       30.00S
PINE RIVER     SUNNY     66  45  45 S5        30.03S
BRAINERD       SUNNY     63  41  44 S8        30.01F
STAPLES        SUNNY     64  36  34 S7        30.00F
LONG PRAIRIE   CLOUDY    63  43  48 SE6       30.02S
LITTLE FALLS   SUNNY     64  36  34 S5        30.01F
LITCHFIELD     PTSUNNY   66  45  45 S3        30.02F
BUFFALO        PTSUNNY   66  42  42 S5        30.03F
MAPLE LAKE     MOSUNNY   67  47  50 SW3       30.03F
$$
MNZ037-044-045-052-053-170000-
   East Central Minnesota

CITY           SKY/WX    TMP DP  RH WIND       PRES   REMARKS
PRINCETON      SUNNY     66  43  42 S8        30.03F
MORA           SUNNY     64  41  42 S6        30.04F
CAMBRIDGE      SUNNY     66  46  48 SW6       30.02F
RUSH CITY      SUNNY     65  42  43 CALM      30.03F
MOOSE LAKE     SUNNY     64  41  42 W5        29.99F
HINCKLEY       FAIR      64  45  48 SW8       30.02F
CLOQUET        SUNNY     64  39  39 SW12      30.00F
MCGREGOR       SUNNY     64  43  45 S6        30.02S
$$
MNZ071>073-080-081-089-090-097-098-170000-
   Southwest Minnesota

CITY           SKY/WX    TMP DP  RH WIND       PRES   REMARKS
MONTEVIDEO     CLOUDY    68  46  45 S6        29.99F
GRANITE FALLS  PTSUNNY   68  47  46 S10       30.01F
CANBY          PTSUNNY   67  48  50 S8        29.99F
MARSHALL       CLOUDY    66  46  48 S9        29.99F
REDWOOD FALLS  SUNNY     68  45  43 S8        30.00F
OLIVIA         CLOUDY    68  46  45 S5        30.00F
PIPESTONE      CLOUDY    64  46  52 S9        30.01S
WINDOM         MOSUNNY   66  45  45 S8        30.03S
WORTHINGTON    CLOUDY    64  45  48 S9        30.02F
JACKSON        SUNNY     66  45  45 S7        30.04F
TRACY          CLOUDY    66  49  53 CALM      30.01S
SLAYTON        CLOUDY    64  45  48 S7        30.02F
$$
MNZ065>067-074>077-082>085-091>093-170000-
   South Central Minnesota

CITY           SKY/WX    TMP DP  RH WIND       PRES   REMARKS
MANKATO        SUNNY     66  43  42 SW8       30.03F
NEW ULM        SUNNY     66  48  52 S5        30.02F
ST JAMES       MOSUNNY   66  45  45 S3        30.04F
FAIRMONT       SUNNY     68  43  40 S6        30.04F
GLENCOE        SUNNY     68  40  36 S5        30.02F
FARIBAULT      SUNNY     70  36  28 S5        30.05F
OWATONNA       SUNNY     66  41  39 SW5       30.05F
WASECA         SUNNY     63  36  36 S8        30.06F
ALBERT LEA     SUNNY     64  43  45 S6        30.05
$$
MNZ078>079-086>088-094>096-170000-
   Southeast Minnesota

CITY           SKY/WX    TMP DP  RH WIND       PRES   REMARKS
ROCHESTER      SUNNY     64  43  46 SW7       30.07F
RED WING       SUNNY     68  39  34 CALM      30.04F
STANTON        SUNNY     66  43  42 SW6       30.03F
DODGE CENTER   SUNNY     64  45  48 SW8       30.06F
WINONA         SUNNY     66  43  42 W3        30.06F
AUSTIN         SUNNY     64  45  48 SW6       30.06F
PRESTON        SUNNY     63  49  61 SW3       30.08F
$$
ABBREVIATIONS USED IN REMARKS
   TC - TEMPERATURES IN CELSIUS
  WCI - WIND CHILL INDEX
   HX - HEAT INDEX
  VSB - VISIBILITY
$$



USA.gov is the U.S. government's official web portal to all federal, state and local government web resources and services.